Location: Burbank
(38.7788°N, 114.0429°W)
Time: 14:05:33
(UTC+00:00)

Vanguard 2 Rocket - Pass Details

Date: 22 May 2026
Orbit: 553 x 3286 km, 32.9° (Epoch: 6 June)

Event Time Altitude Azimuth Distance (km) Brightness Sun altitude
Rises 20:52:28 0° 277° (W) 5,558 11.1 65.0°
Reaches altitude 10° 20:55:41 10° 273° (W) 4,862 11.0 64.5°
Maximum altitude 21:10:22 57° 200° (SSW) 3,398 11.6 62.2°
Drops below altitude 10° 21:29:40 10° 129° (SE) 6,186 11.1 59.0°
Sets 21:34:26 0° 126° (SE) 7,095 11.3 58.1°
